LICDLIPX

Guest
Details From LICD - Lampedusa
To LIPX - Villafranca
Flight Number -
Tags Standard
Created
Modified
Stats Distance 600 nm / 1,111 km
Max Altitude 0 ft / 0 m
Waypoints 7
Social Downloads 2
Likes 0
Share VATSIM

Download

Looking for another format? Having issues loading an existing format? Contact us
Advertisement - Login to hide

Notes

None

Route

LICD RITMO RONAB VALMA IFZ05 VIL25 LIPX

ID Type Via Altitude (ft/m) Position (lat/lon) Dist (leg/tot) Name
O LICD APT - 0 / 0 35.49664 / 12.60829 - / 0 nm
RITMO FIX - 0 / 0 37.26500 / 12.40833 106 / 106 nm
RONAB FIX - 0 / 0 39.86972 / 11.89111 158 / 264 nm
VALMA FIX - 0 / 0 41.57722 / 11.42139 104 / 369 nm
IFZ05 FIX - 0 / 0 43.74704 / 11.11834 130 / 500 nm
VIL25 FIX - 0 / 0 44.99146 / 10.92181 75 / 575 nm
O LIPX APT - 0 / 0 45.38732 / 10.87633 23 / 599 nm

Altitude Profile

Advertisement - Login to hide

Weather


0- 5 10 15 20 25 30 35+ Temperature / °C

Clouds and Precipitation
Forecast for 2019-04-26 12:00 UTC. Updated 2 hours ago

Ground ~20,000 ft ~40,000 ft Winds

LICD

Details ICAO LICD (LMP)
Name Lampedusa Airport
Region Italy
Timezone Europe/Rome (UTC+2.0)
Stats Elevation 65 ft / 20 m (AMSL)
Location 35.498100° 12.618300°
Runways 1
Magnetic Variation 2.842° E

METAR

LICD 261050Z 01010KT 9000 NSC 19/17 Q1018

Decode

TAF

TAF LICD 260500Z 2606/2706 03010KT 6000 SCT020

Decode

Departure Runways

ID Width Length Bearing (true/mag) Surface Threshold Overrun Markings Lighting
08 148 ft / 45 m 5,890 ft / 1,795 m 80.57° / 77.73° ASPHALT 0 ft / 0 m 0 ft / 0 m PREC-APP CENTERLINE EDGE THRESHOLD SALS REIL-OMNI
26 148 ft / 45 m 5,890 ft / 1,795 m 260.58° / 257.74° ASPHALT 0 ft / 0 m 0 ft / 0 m PREC-APP CENTERLINE EDGE THRESHOLD REIL-OMNI

LIPX

Details ICAO LIPX (VRN)
Name VILLAFRANCA
Region Italy
Timezone Europe/Rome (UTC+2.0)
Stats Elevation 237 ft / 72 m (AMSL)
Location 45.397000° 10.890300°
Runways 1
Magnetic Variation 3.017° E

METAR

LIPX 261120Z 12005KT 090V150 9999 FEW020 SCT080 17/14 Q1014

Decode

TAF

Not found

Destination Runways

ID Width Length Bearing (true/mag) Surface Threshold Overrun Markings Lighting
04 148 ft / 45 m 10,063 ft / 3,067 m 45.60° / 42.59° ASPHALT 190 ft / 58 m 0 ft / 0 m PREC-APP CENTERLINE EDGE THRESHOLD ALSF-II TDZ
22 148 ft / 45 m 10,063 ft / 3,067 m 225.62° / 222.61° ASPHALT 1,345 ft / 410 m 0 ft / 0 m PREC-APP CENTERLINE EDGE THRESHOLD SALS

Approach Navaids

Runway Type Ident Frequency Range Bearing (true/mag) Slope Elevation
04 LOC-ILS IVF 110.10 MHz 18 nm / 33 km 45.62° / 42.60 ° - 237 ft / 72 m (AMSL)
04 OM OM - - 45.80° / 42.78 ° - 239 ft / 73 m (AMSL)
04 DME IVF 110.10 MHz 18 nm / 33 km - - 248 ft / 76 m (AMSL)
04 GS IVF 110.10 MHz 10 nm / 19 km 45.62° / 42.60 ° 3.00° 237 ft / 72 m (AMSL)
04 MM MM - - 45.80° / 42.78 ° - 239 ft / 73 m (AMSL)